This is the latest recevied weather packets stored in our database for station/object NE1CU. If no packets are shown the sender has not sent any weather packets the latest 10 day(s).
| Time | Temp. | Humidity | Pressure | Rain* | Wind** | Luminosity | Snow |
|---|---|---|---|---|---|---|---|
| 1777779570 | 10° C | 45% | 1010.8 hPa | 0 mm | - | 0 W/m² | - |
| 1777779267 | 10° C | 45% | 1010.5 hPa | 0 mm | - | 0 W/m² | - |
| 1777778965 | 10° C | 45% | 1010.6 hPa | 0 mm | - | 0 W/m² | - |
| 1777778663 | 10° C | 45% | 1010.7 hPa | 0 mm | - | 0 W/m² | - |
| 1777778360 | 10.56° C | 45% | 1010.6 hPa | 0 mm | - | 0 W/m² | - |
| 1777778058 | 10° C | 45% | 1010.6 hPa | 0 mm | - | 0 W/m² | - |
| 1777777754 | 10° C | 46% | 1010.7 hPa | 0 mm | - | 0 W/m² | - |
| 1777777451 | 10.56° C | 46% | 1010.6 hPa | 0 mm | - | 0 W/m² | - |
| 1777777148 | 10.56° C | 44% | 1010.7 hPa | 0 mm | - | 0 W/m² | - |
| 1777776845 | 10.56° C | 46% | 1010.6 hPa | 0 mm | - | 0 W/m² | - |
| 1777776542 | 10.56° C | 45% | 1010.7 hPa | 0 mm | - | 0 W/m² | - |
| 1777776238 | 10.56° C | 44% | 1010.7 hPa | 0 mm | - | 0 W/m² | - |
| 1777775936 | 10.56° C | 45% | 1010.7 hPa | 0 mm | - | 0 W/m² | - |
| 1777775633 | 10.56° C | 45% | 1010.6 hPa | 0 mm | - | 0 W/m² | - |
| 1777775330 | 10.56° C | 45% | 1010.7 hPa | 0 mm | - | 0 W/m² | - |
| 1777775029 | 10.56° C | 46% | 1010.8 hPa | 0 mm | - | 0 W/m² | - |
| 1777774726 | 10.56° C | 45% | 1010.9 hPa | 0 mm | - | 0 W/m² | - |
| 1777774423 | 10.56° C | 47% | 1011 hPa | 0 mm | - | 0 W/m² | - |
| 1777774120 | 10.56° C | 48% | 1011 hPa | 0 mm | - | 0 W/m² | - |
| 1777773818 | 10.56° C | 49% | 1011.1 hPa | 0 mm | - | 0 W/m² | - |
| 1777773514 | 10.56° C | 49% | 1011 hPa | 0 mm | - | 0 W/m² | - |
| 1777773211 | 10.56° C | 52% | 1011.1 hPa | 0 mm | - | 0 W/m² | - |
| 1777772907 | 10.56° C | 53% | 1010.9 hPa | 0 mm | - | 0 W/m² | - |
| 1777772605 | 10.56° C | 53% | 1010.9 hPa | 0 mm | - | 0 W/m² | - |
| 1777772302 | 10.56° C | 55% | 1010.8 hPa | 0 mm | - | 0 W/m² | - |
* Rain latest hour (hover to see other rain measurements)
** Current wind speed in m/s (hover to see current wind gust speed)